| time (UTC) | temp F | wind direction | speed MPH | gust MPH | rain 1hr in | rain 24hr in | rain mn in | humidity % | barometer mb |
| 20260503224842 | 58 | 331 | 2.0 | 2.0 | 0.00 | 0.00 | 0.00 | 37 | 1016.7 |
| 20260503221837 | 59 | 32 | 2.0 | 2.0 | 0.00 | 0.00 | 0.00 | 37 | 1016.7 |
| 20260503214832 | 59 | 242 | 5.0 | 5.0 | 0.00 | 0.00 | 0.00 | 36 | 1017.0 |
| 20260503211828 | 61 | 306 | 6.0 | 6.0 | 0.00 | 0.00 | 0.00 | 34 | 1017.0 |
| 20260503204828 | 60 | 324 | 2.0 | 2.0 | 0.00 | 0.00 | 0.00 | 35 | 1017.0 |
| 20260503201825 | 60 | 309 | 2.0 | 2.0 | 0.00 | 0.00 | 0.00 | 37 | 1017.4 |
| 20260503194824 | 60 | 287 | 2.0 | 2.0 | 0.00 | 0.00 | 0.00 | 39 | 1017.7 |
| 20260503191823 | 58 | 39 | 7.0 | 8.0 | 0.00 | 0.00 | 0.00 | 39 | 1018.0 |
| 20260503184819 | 58 | 335 | 5.0 | 6.0 | 0.00 | 0.00 | 0.00 | 40 | 1017.7 |
| 20260503181814 | 58 | 341 | 3.0 | 3.0 | 0.00 | 0.00 | 0.00 | 38 | 1018.4 |
| 20260503174811 | 56 | 340 | 4.0 | 5.0 | 0.00 | 0.00 | 0.00 | 40 | 1018.4 |
| 20260503171809 | 56 | 327 | 4.0 | 4.0 | 0.00 | 0.00 | 0.00 | 38 | 1018.7 |
| 20260503071717 | 38 | 348 | 3.0 | 3.0 | 0.00 | 0.00 | 0.00 | 74 | 1017.7 |
| 20260503054707 | 40 | 348 | 2.0 | 2.0 | 0.00 | 0.00 | 0.00 | 71 | 1017.7 |
| 20260503051706 | 41 | 337 | 3.0 | 3.0 | 0.00 | 0.00 | 0.00 | 72 | 1017.7 |
| 20260503044706 | 41 | 288 | 2.0 | 2.0 | 0.00 | 0.00 | 0.00 | 73 | 1017.7 |
| 20260503041704 | 41 | 357 | 2.0 | 2.0 | 0.00 | 0.00 | 0.00 | 73 | 1018.0 |
| 20260503034700 | 42 | 35 | 2.0 | 2.0 | 0.00 | 0.00 | 0.00 | 72 | 1017.7 |
| 20260503031656 | 42 | 4 | 2.0 | 2.0 | 0.00 | 0.00 | 0.00 | 70 | 1018.0 |
| 20260503024655 | 43 | 8 | 2.0 | 2.0 | 0.00 | 0.00 | 0.00 | 69 | 1018.0 |
| 20260503021651 | 44 | 282 | 3.0 | 3.0 | 0.00 | 0.00 | 0.00 | 66 | 1018.0 |
| 20260503014648 | 44 | 338 | 2.0 | 2.0 | 0.00 | 0.00 | 0.00 | 67 | 1018.0 |
| 20260503011648 | 45 | 30 | 3.0 | 3.0 | 0.00 | 0.00 | 0.00 | 67 | 1017.7 |
| 20260503004647 | 46 | 12 | 3.0 | 3.0 | 0.00 | 0.00 | 0.00 | 66 | 1017.4 |
| 20260503001645 | 47 | 18 | 3.0 | 3.0 | 0.00 | 0.00 | 0.00 | 63 | 1017.0 |
| 20260502234645 | 48 | 30 | 3.0 | 3.0 | 0.00 | 0.00 | 0.00 | 60 | 1016.7 |
| 20260502231643 | 49 | 4 | 4.0 | 4.0 | 0.00 | 0.00 | 0.00 | 56 | 1016.7 |